EWG896 EDDK-LIRP

Flight info

Callsign EWG896
Flight time N/A
Altitude 36000
Route KUMIK1B KUMIK Y854 BOMBI DCT GIGET DCT ABUKA DCT BANUX DCT KRH DCT NATOR/N0450F370 DCT TRA DCT RIPUS DCT GERSA DCT SOSON DCT ODINA DCT SRN DCT OSBUL DCT EKPAL DCT MIVKI
Aircraft A320/M-SDE2E3FGIJ1RWXYZ/HB1

Departure

Time 2026-05-06 15:52
Airport Cologne Bonn Airport (EDDK)

Arrival

Time N/A
Airport Pisa International Airport (LIRP)
Time Latitude Longitude Altitude Speed Heading
2026-05-06 15:04 50.87964 7.12415 232 ft 0 kts 246°
2026-05-06 15:41 50.87968 7.12432 232 ft 4 kts 246°
2026-05-06 15:42 50.87978 7.12466 232 ft 4 kts 238°
2026-05-06 15:42 50.87994 7.12485 232 ft 4 kts 169°
2026-05-06 15:42 50.88018 7.12469 232 ft 4 kts 141°
2026-05-06 15:42 50.88024 7.12462 232 ft 0 kts 138°
2026-05-06 15:45 50.88015 7.12473 234 ft 8 kts 138°
2026-05-06 15:45 50.87952 7.12565 233 ft 12 kts 137°
2026-05-06 15:45 50.87871 7.12609 232 ft 12 kts 185°
2026-05-06 15:45 50.87773 7.12692 234 ft 22 kts 137°
2026-05-06 15:46 50.87659 7.12859 234 ft 23 kts 137°
2026-05-06 15:46 50.87539 7.13032 234 ft 24 kts 137°
2026-05-06 15:46 50.87413 7.13213 233 ft 25 kts 137°
2026-05-06 15:46 50.87284 7.13400 233 ft 23 kts 137°
2026-05-06 15:47 50.87167 7.13570 237 ft 22 kts 137°
2026-05-06 15:47 50.87055 7.13733 241 ft 22 kts 137°
2026-05-06 15:47 50.86932 7.13910 249 ft 23 kts 137°
2026-05-06 15:47 50.86818 7.14075 255 ft 22 kts 137°
2026-05-06 15:48 50.86706 7.14176 258 ft 20 kts 137°
2026-05-06 15:48 50.86589 7.14346 261 ft 24 kts 137°
2026-05-06 15:48 50.86468 7.14522 268 ft 22 kts 137°
2026-05-06 15:48 50.86360 7.14679 274 ft 20 kts 137°
2026-05-06 15:49 50.86247 7.14843 281 ft 24 kts 137°
2026-05-06 15:49 50.86118 7.15030 287 ft 25 kts 137°
2026-05-06 15:49 50.85990 7.15215 294 ft 24 kts 137°
2026-05-06 15:49 50.85867 7.15393 299 ft 23 kts 137°
2026-05-06 15:50 50.85748 7.15564 302 ft 23 kts 137°
2026-05-06 15:50 50.85630 7.15735 303 ft 24 kts 137°
2026-05-06 15:50 50.85508 7.15913 308 ft 24 kts 137°
2026-05-06 15:50 50.85386 7.16091 311 ft 21 kts 136°
2026-05-06 15:51 50.85337 7.16296 308 ft 21 kts 86°
2026-05-06 15:51 50.85401 7.16473 308 ft 18 kts 38°
2026-05-06 15:51 50.85517 7.16522 309 ft 14 kts
2026-05-06 15:51 50.85600 7.16454 308 ft 17 kts 317°
2026-05-06 15:52 50.85845 7.16099 304 ft 82 kts 317°
2026-05-06 15:52 50.86420 7.15266 284 ft 140 kts 317°
2026-05-06 15:52 50.87248 7.14078 415 ft 170 kts 318°
2026-05-06 15:52 50.88137 7.12808 1141 ft 174 kts 318°
2026-05-06 15:53 50.89072 7.11586 1792 ft 176 kts 334°
2026-05-06 15:53 50.90258 7.11383 2274 ft 182 kts 18°
2026-05-06 15:53 50.91451 7.12265 2616 ft 200 kts 24°
2026-05-06 15:53 50.92739 7.13304 3141 ft 207 kts 28°
2026-05-06 15:54 50.93818 7.14963 3686 ft 224 kts 57°
2026-05-06 15:54 50.94597 7.17219 4024 ft 242 kts 60°
2026-05-06 15:54 50.95412 7.19710 4501 ft 262 kts 62°
2026-05-06 15:54 50.96226 7.22329 5319 ft 267 kts 63°
2026-05-06 15:55 50.97052 7.25013 6096 ft 273 kts 63°
2026-05-06 15:55 50.97888 7.27709 6867 ft 278 kts 63°
2026-05-06 15:55 50.98750 7.30473 7592 ft 282 kts 63°
2026-05-06 15:55 50.99645 7.33329 8339 ft 287 kts 63°
2026-05-06 15:56 51.00542 7.36191 9063 ft 293 kts 63°
2026-05-06 15:56 51.01328 7.39147 9771 ft 297 kts 74°
2026-05-06 15:56 51.01647 7.42411 10463 ft 302 kts 89°
2026-05-06 15:56 51.01415 7.45830 10689 ft 323 kts 106°
2026-05-06 15:57 51.00727 7.49353 10925 ft 343 kts 109°
2026-05-06 15:57 50.99990 7.53001 11512 ft 350 kts 109°
2026-05-06 15:57 50.99246 7.56708 12201 ft 354 kts 109°
2026-05-06 15:57 50.98499 7.60462 12867 ft 358 kts 109°
2026-05-06 15:58 50.97752 7.64250 13552 ft 362 kts 109°
2026-05-06 15:58 50.97001 7.68089 14228 ft 365 kts 109°
2026-05-06 15:58 50.96244 7.71948 14693 ft 368 kts 109°
2026-05-06 15:58 50.95477 7.75844 14814 ft 368 kts 109°
2026-05-06 15:59 50.94700 7.79716 14843 ft 368 kts 111°
2026-05-06 15:59 50.93647 7.83379 14837 ft 364 kts 122°
2026-05-06 15:59 50.92275 7.86745 14818 ft 364 kts 126°
2026-05-06 15:59 50.90884 7.90078 14833 ft 363 kts 126°
2026-05-06 16:00 50.89485 7.93414 14826 ft 363 kts 126°
2026-05-06 16:00 50.88091 7.96737 14827 ft 362 kts 126°
2026-05-06 16:00 50.86704 8.00062 14823 ft 362 kts 126°
2026-05-06 16:00 50.85330 8.03346 14841 ft 364 kts 126°
2026-05-06 16:01 50.83769 8.06487 15402 ft 362 kts 136°
2026-05-06 16:01 50.81878 8.09104 15973 ft 361 kts 147°
2026-05-06 16:01 50.79764 8.11271 16546 ft 364 kts 150°
2026-05-06 16:01 50.77619 8.13429 17116 ft 367 kts 150°
2026-05-06 16:02 50.75454 8.15607 17688 ft 370 kts 150°
2026-05-06 16:02 50.73270 8.17812 18274 ft 374 kts 150°
2026-05-06 16:02 50.71080 8.20018 18848 ft 374 kts 150°
2026-05-06 16:02 50.68874 8.22234 19335 ft 378 kts 150°
2026-05-06 16:03 50.66641 8.24475 19841 ft 382 kts 150°
2026-05-06 16:03 50.64399 8.26721 20367 ft 385 kts 150°
2026-05-06 16:03 50.62137 8.28987 20890 ft 388 kts 150°
2026-05-06 16:03 50.59847 8.31277 21392 ft 390 kts 150°
2026-05-06 16:04 50.57576 8.33549 21848 ft 393 kts 149°
2026-05-06 16:04 50.56011 8.35112 22156 ft 395 kts 150°
2026-05-06 16:04 50.53688 8.37432 22601 ft 397 kts 149°
2026-05-06 16:04 50.51345 8.39770 23038 ft 400 kts 150°
2026-05-06 16:05 50.48988 8.42113 23437 ft 401 kts 150°
2026-05-06 16:05 50.46630 8.44468 23787 ft 404 kts 150°
2026-05-06 16:05 50.44241 8.46839 24158 ft 407 kts 150°
2026-05-06 16:05 50.41838 8.49216 24539 ft 409 kts 150°
2026-05-06 16:06 50.39429 8.51592 24944 ft 410 kts 150°
2026-05-06 16:06 50.36997 8.53953 25325 ft 412 kts 152°
2026-05-06 16:06 50.34522 8.56185 25674 ft 411 kts 153°
2026-05-06 16:06 50.32002 8.58319 26010 ft 412 kts 155°
2026-05-06 16:07 50.29451 8.60388 26377 ft 412 kts 155°
2026-05-06 16:07 50.26890 8.62437 26700 ft 415 kts 155°
2026-05-06 16:07 50.24324 8.64510 27055 ft 416 kts 155°
2026-05-06 16:07 50.21756 8.66620 27403 ft 418 kts 155°
2026-05-06 16:08 50.19176 8.68765 27787 ft 420 kts 155°
2026-05-06 16:08 50.16599 8.70923 28144 ft 420 kts 155°
2026-05-06 16:08 50.14024 8.73074 28494 ft 420 kts 155°
2026-05-06 16:08 50.11441 8.75227 28809 ft 421 kts 155°
2026-05-06 16:09 50.08811 8.77237 29097 ft 419 kts 161°
2026-05-06 16:09 50.06034 8.78556 29379 ft 418 kts 171°
2026-05-06 16:09 50.03197 8.79115 29664 ft 415 kts 180°
2026-05-06 16:09 50.00320 8.78935 29919 ft 413 kts 188°
2026-05-06 16:10 49.97472 8.78340 30131 ft 413 kts 189°
2026-05-06 16:10 49.94629 8.77746 30375 ft 413 kts 189°
2026-05-06 16:10 49.91780 8.77150 30591 ft 413 kts 189°
2026-05-06 16:10 49.88935 8.76553 30814 ft 413 kts 189°
2026-05-06 16:11 49.86088 8.75961 31078 ft 412 kts 189°
2026-05-06 16:11 49.83243 8.75375 31325 ft 412 kts 189°
2026-05-06 16:11 49.80416 8.74793 31566 ft 412 kts 189°
2026-05-06 16:11 49.77577 8.74208 31811 ft 412 kts 189°
2026-05-06 16:12 49.74737 8.73625 32063 ft 411 kts 190°
2026-05-06 16:12 49.71922 8.73047 32288 ft 411 kts 189°
2026-05-06 16:12 49.69084 8.72465 32517 ft 411 kts 190°
2026-05-06 16:12 49.66251 8.71887 32736 ft 411 kts 190°
2026-05-06 16:13 49.60580 8.70733 32804 ft 409 kts 190°
2026-05-06 16:13 49.54928 8.69598 32812 ft 411 kts 190°
2026-05-06 16:14 49.49269 8.68469 32821 ft 410 kts 190°
2026-05-06 16:14 49.43605 8.67811 32813 ft 412 kts 185°
2026-05-06 16:15 49.37865 8.67598 32814 ft 412 kts 185°
2026-05-06 16:15 49.32134 8.67381 32816 ft 412 kts 185°
2026-05-06 16:16 49.26408 8.67171 32815 ft 411 kts 185°
2026-05-06 16:16 49.20697 8.66945 32814 ft 411 kts 185°
2026-05-06 16:17 49.14981 8.66732 32827 ft 410 kts 185°
2026-05-06 16:17 49.09401 8.65392 32823 ft 404 kts 201°
2026-05-06 16:18 49.04273 8.61945 32822 ft 402 kts 206°
2026-05-06 16:18 48.99191 8.58541 32824 ft 402 kts 199°
2026-05-06 16:19 48.93707 8.56609 32837 ft 405 kts 194°
2026-05-06 16:19 48.88192 8.54838 32831 ft 404 kts 194°
2026-05-06 16:20 48.82712 8.53062 32834 ft 403 kts 194°
2026-05-06 16:20 48.77216 8.51290 32832 ft 405 kts 194°
2026-05-06 16:21 48.71738 8.49542 32838 ft 404 kts 194°
2026-05-06 16:21 48.66241 8.47767 32832 ft 402 kts 194°
2026-05-06 16:22 48.60794 8.46020 32841 ft 403 kts 194°
2026-05-06 16:22 48.55303 8.44266 32851 ft 403 kts 194°
2026-05-06 16:23 48.49818 8.42507 32845 ft 402 kts 194°
2026-05-06 16:23 48.44342 8.40760 32848 ft 401 kts 194°
2026-05-06 16:24 48.38881 8.39040 32852 ft 401 kts 194°
2026-05-06 16:24 48.33418 8.37309 32852 ft 402 kts 194°
2026-05-06 16:25 48.27956 8.35580 32858 ft 400 kts 194°
2026-05-06 16:25 48.25220 8.34713 33013 ft 402 kts 194°
2026-05-06 16:25 48.22486 8.33849 33266 ft 401 kts 194°
2026-05-06 16:26 48.19794 8.33002 33539 ft 401 kts 193°
2026-05-06 16:26 48.17011 8.32532 33816 ft 403 kts 184°
2026-05-06 16:26 48.14170 8.32792 34082 ft 407 kts 175°
2026-05-06 16:26 48.11423 8.33474 34334 ft 405 kts 175°
2026-05-06 16:27 48.08637 8.34160 34503 ft 406 kts 175°
2026-05-06 16:27 48.05809 8.34847 34672 ft 408 kts 175°
2026-05-06 16:27 48.03041 8.35520 34851 ft 408 kts 175°
2026-05-06 16:27 48.00235 8.36195 35018 ft 407 kts 175°
2026-05-06 16:28 47.97438 8.36868 35149 ft 408 kts 175°
2026-05-06 16:28 47.94633 8.37543 35278 ft 409 kts 175°
2026-05-06 16:28 47.91817 8.38218 35434 ft 410 kts 175°
2026-05-06 16:28 47.88997 8.38888 35586 ft 411 kts 175°
2026-05-06 16:29 47.86171 8.39557 35736 ft 411 kts 175°
2026-05-06 16:29 47.83340 8.40232 35882 ft 413 kts 175°
2026-05-06 16:29 47.80505 8.40916 36029 ft 413 kts 175°
2026-05-06 16:29 47.77665 8.41604 36169 ft 414 kts 175°
2026-05-06 16:30 47.74809 8.42289 36333 ft 417 kts 174°
2026-05-06 16:30 47.72873 8.42758 36437 ft 415 kts 175°
2026-05-06 16:30 47.69097 8.43660 36611 ft 415 kts 175°
2026-05-06 16:30 47.66234 8.44250 36776 ft 414 kts 177°
2026-05-06 16:31 47.63380 8.44710 36994 ft 411 kts 178°
2026-05-06 16:31 47.60542 8.45100 37199 ft 409 kts 179°
2026-05-06 16:31 47.57704 8.45459 37341 ft 409 kts 179°
2026-05-06 16:31 47.54879 8.45817 37461 ft 406 kts 179°
2026-05-06 16:32 47.52067 8.46190 37577 ft 405 kts 179°
2026-05-06 16:32 47.49264 8.46587 37699 ft 408 kts 178°
2026-05-06 16:32 47.46452 8.46998 37828 ft 408 kts 178°
2026-05-06 16:32 47.43621 8.47419 37947 ft 407 kts 178°
2026-05-06 16:33 47.40805 8.47840 38072 ft 407 kts 178°
2026-05-06 16:33 47.38025 8.48250 38201 ft 407 kts 178°
2026-05-06 16:33 47.35219 8.48665 38326 ft 405 kts 178°
2026-05-06 16:34 47.29613 8.49483 38575 ft 403 kts 178°
2026-05-06 16:34 47.26827 8.49888 38702 ft 403 kts 178°
2026-05-06 16:34 47.24050 8.50291 38858 ft 399 kts 178°
2026-05-06 16:35 47.18485 8.51098 38904 ft 405 kts 178°
2026-05-06 16:35 47.12873 8.51918 38919 ft 408 kts 178°
2026-05-06 16:36 47.07188 8.52744 38921 ft 415 kts 179°
2026-05-06 16:36 47.01425 8.53578 38919 ft 417 kts 179°
2026-05-06 16:37 46.95653 8.54405 38913 ft 416 kts 178°
2026-05-06 16:37 46.89884 8.55239 38913 ft 417 kts 179°
2026-05-06 16:38 46.84140 8.56071 38905 ft 414 kts 178°
2026-05-06 16:38 46.78393 8.56897 38913 ft 415 kts 179°
2026-05-06 16:39 46.72624 8.57718 38940 ft 417 kts 179°
2026-05-06 16:39 46.66839 8.58543 38930 ft 416 kts 179°
2026-05-06 16:40 46.61082 8.59362 38936 ft 415 kts 179°
2026-05-06 16:40 46.55384 8.60175 38926 ft 413 kts 179°
2026-05-06 16:41 46.49659 8.60976 38913 ft 414 kts 179°
2026-05-06 16:41 46.43930 8.61770 38911 ft 413 kts 179°
2026-05-06 16:42 46.38195 8.62606 38917 ft 415 kts 179°
2026-05-06 16:42 46.32426 8.63426 38924 ft 417 kts 179°
2026-05-06 16:43 46.26656 8.64223 38930 ft 416 kts 179°
2026-05-06 16:43 46.20914 8.65038 38913 ft 414 kts 179°
2026-05-06 16:44 46.15161 8.65840 38918 ft 415 kts 179°
2026-05-06 16:44 46.09472 8.67469 38912 ft 426 kts 163°
2026-05-06 16:45 46.04201 8.71370 38904 ft 430 kts 156°
2026-05-06 16:45 45.98944 8.75507 38897 ft 430 kts 157°
2026-05-06 16:46 45.93678 8.79623 38891 ft 430 kts 158°
2026-05-06 16:46 45.88437 8.83699 38878 ft 428 kts 158°
2026-05-06 16:47 45.83236 8.87735 38877 ft 428 kts 158°
2026-05-06 16:47 45.78001 8.91793 38867 ft 427 kts 157°
2026-05-06 16:48 45.72771 8.95832 38866 ft 426 kts 158°
2026-05-06 16:48 45.67538 8.99892 38837 ft 428 kts 158°
2026-05-06 16:49 45.62737 9.05079 38827 ft 441 kts 139°
2026-05-06 16:49 45.58597 9.11615 38819 ft 444 kts 138°
2026-05-06 16:50 45.54458 9.18137 38830 ft 446 kts 139°
2026-05-06 16:50 45.50296 9.24669 38833 ft 446 kts 138°
2026-05-06 16:51 45.46122 9.31211 38832 ft 446 kts 139°
2026-05-06 16:51 45.42616 9.36689 38831 ft 446 kts 139°
2026-05-06 16:52 45.38415 9.43161 38828 ft 442 kts 144°
2026-05-06 16:52 45.35999 9.45717 38825 ft 428 kts 158°
2026-05-06 16:52 45.33344 9.47377 38824 ft 421 kts 164°
2026-05-06 16:53 45.27870 9.50387 38822 ft 420 kts 165°
2026-05-06 16:53 45.25135 9.51875 38616 ft 423 kts 165°
2026-05-06 16:53 45.22396 9.53365 38168 ft 421 kts 165°
2026-05-06 16:53 45.19665 9.54856 37725 ft 420 kts 165°
2026-05-06 16:54 45.16950 9.56343 37277 ft 417 kts 165°
2026-05-06 16:54 45.14248 9.57822 36830 ft 415 kts 166°
2026-05-06 16:54 45.11556 9.59292 36379 ft 414 kts 166°
2026-05-06 16:54 45.08868 9.60757 35934 ft 413 kts 166°
2026-05-06 16:55 45.06183 9.62215 35484 ft 414 kts 166°
2026-05-06 16:55 45.03491 9.63683 35017 ft 416 kts 166°
2026-05-06 16:55 45.00798 9.65147 34576 ft 416 kts 167°
2026-05-06 16:55 44.98093 9.66611 34121 ft 414 kts 166°
2026-05-06 16:56 44.95411 9.68061 33670 ft 410 kts 167°
2026-05-06 16:56 44.92751 9.69509 33210 ft 407 kts 167°
2026-05-06 16:56 44.90118 9.70940 32759 ft 404 kts 167°
2026-05-06 16:56 44.87498 9.72353 32303 ft 400 kts 167°
2026-05-06 16:57 44.84926 9.73735 31859 ft 398 kts 167°
2026-05-06 16:57 44.82310 9.75141 31395 ft 397 kts 167°
2026-05-06 16:57 44.79741 9.76521 30942 ft 394 kts 167°
2026-05-06 16:57 44.77222 9.77873 30500 ft 391 kts 167°
2026-05-06 16:58 44.74673 9.79228 30056 ft 389 kts 167°
2026-05-06 16:58 44.72153 9.80581 29604 ft 386 kts 167°
2026-05-06 16:58 44.69654 9.81928 29151 ft 384 kts 167°
2026-05-06 16:58 44.67170 9.83267 28714 ft 382 kts 167°
2026-05-06 16:59 44.64700 9.84598 28256 ft 379 kts 167°
2026-05-06 16:59 44.62243 9.85919 27808 ft 377 kts 167°
2026-05-06 16:59 44.59807 9.87219 27344 ft 372 kts 167°
2026-05-06 16:59 44.57390 9.88499 26891 ft 371 kts 167°
2026-05-06 17:00 44.54975 9.89781 26439 ft 370 kts 167°
2026-05-06 17:00 44.52573 9.91059 25990 ft 368 kts 167°
2026-05-06 17:00 44.50197 9.92323 25552 ft 365 kts 166°
2026-05-06 17:00 44.47834 9.93588 25090 ft 362 kts 167°
2026-05-06 17:01 44.45486 9.94850 24638 ft 361 kts 166°
2026-05-06 17:01 44.43158 9.96093 24185 ft 357 kts 167°
2026-05-06 17:01 44.40841 9.97325 23735 ft 354 kts 167°
2026-05-06 17:01 44.38539 9.98546 23271 ft 353 kts 166°
2026-05-06 17:02 44.36269 9.99746 22830 ft 352 kts 166°
2026-05-06 17:02 44.33980 10.00958 22375 ft 350 kts 166°
2026-05-06 17:02 44.31705 10.02164 21920 ft 349 kts 166°
2026-05-06 17:02 44.29469 10.03342 21470 ft 345 kts 166°
2026-05-06 17:03 44.27227 10.04524 21019 ft 342 kts 166°
2026-05-06 17:03 44.25013 10.05695 20572 ft 341 kts 166°
2026-05-06 17:03 44.22793 10.06861 20110 ft 338 kts 167°
2026-05-06 17:03 44.20552 10.07741 19660 ft 335 kts 171°
2026-05-06 17:04 44.18290 10.08568 19212 ft 335 kts 171°
2026-05-06 17:04 44.16043 10.09396 18754 ft 333 kts 171°
2026-05-06 17:04 44.13790 10.10220 18298 ft 334 kts 171°
2026-05-06 17:04 44.11540 10.11022 17844 ft 333 kts 171°
2026-05-06 17:05 44.09327 10.11802 17401 ft 332 kts 171°
2026-05-06 17:05 44.07094 10.12584 16945 ft 329 kts 171°
2026-05-06 17:05 44.04886 10.13357 16500 ft 327 kts 171°
2026-05-06 17:05 44.02672 10.14124 16051 ft 326 kts 172°
2026-05-06 17:06 44.00454 10.14759 15605 ft 327 kts 175°
2026-05-06 17:06 43.98203 10.15285 15151 ft 327 kts 175°
2026-05-06 17:06 43.95958 10.15764 14700 ft 327 kts 176°
2026-05-06 17:06 43.93717 10.16236 14260 ft 324 kts 176°
2026-05-06 17:07 43.91500 10.16708 13795 ft 321 kts 175°
2026-05-06 17:07 43.89308 10.17183 13286 ft 313 kts 176°
2026-05-06 17:07 43.87206 10.17655 12641 ft 303 kts 175°
2026-05-06 17:07 43.85145 10.18128 11983 ft 296 kts 175°
2026-05-06 17:08 43.83109 10.18598 11384 ft 293 kts 175°
2026-05-06 17:08 43.81137 10.19050 10809 ft 280 kts 174°
2026-05-06 17:08 43.79267 10.19493 10241 ft 274 kts 176°
2026-05-06 17:08 43.77414 10.19910 9656 ft 264 kts 178°
2026-05-06 17:09 43.75607 10.20326 9097 ft 255 kts 175°
2026-05-06 17:09 43.73819 10.20777 8532 ft 259 kts 175°
2026-05-06 17:09 43.72086 10.21147 7934 ft 252 kts 177°
2026-05-06 17:09 43.70351 10.21504 7344 ft 251 kts 176°
2026-05-06 17:10 43.68631 10.21891 6757 ft 250 kts 175°
2026-05-06 17:10 43.66935 10.22281 6184 ft 245 kts 175°
2026-05-06 17:10 43.65265 10.22664 5625 ft 242 kts 175°
2026-05-06 17:10 43.63628 10.23041 5049 ft 235 kts 175°
2026-05-06 17:11 43.62046 10.23412 4520 ft 228 kts 174°
2026-05-06 17:11 43.60499 10.23765 3955 ft 223 kts 175°
2026-05-06 17:11 43.59063 10.24431 3408 ft 220 kts 146°
2026-05-06 17:11 43.58159 10.26076 2858 ft 218 kts 108°
2026-05-06 17:12 43.58164 10.28144 2418 ft 220 kts 70°
2026-05-06 17:12 43.59031 10.29822 2152 ft 215 kts 38°
2026-05-06 17:12 43.60195 10.31029 1738 ft 203 kts 34°
2026-05-06 17:12 43.61302 10.32145 1469 ft 192 kts 35°
2026-05-06 17:13 43.62331 10.33198 1266 ft 175 kts 35°
2026-05-06 17:13 43.63256 10.34149 1092 ft 160 kts 35°
2026-05-06 17:13 43.64128 10.35051 826 ft 155 kts 35°